Regional Weather Roundup
Issued by NWS

Home | Current Version | Previous Version | Text Only | Print | Product List | Glossary On
Versions: 1 2 3 4 5 6 7 8 9 10 11 12 13 14 15 16 17 18 19 20 21 22 23 24 25 26 27 28 29 30 31 32 33 34 35 36 37 38 39 40 41 42 43 44 45 46 47 48 49 50
000
ASUS44 KMEG 050410
RWRTN
TENNESSEE HOURLY STATE WEATHER ROUNDUP
NATIONAL WEATHER SERVICE MEMPHIS TN
1100 PM CDT MON MAY 04 2015

TNZ002-004-019-021-049-052-054-088>092-050500-
WEST TENNESSEE

CITY           SKY/WX    TMP DP  RH WIND       PRES   REMARKS
MEMPHIS INTL   CLEAR     73  56  54 SE9       30.16R
NWS MEMPHIS      N/A     71 N/A N/A MISG        N/A
JACKSON        CLEAR     65  53  65 S5        30.18S
DYERSBURG      CLEAR     68  43  40 SE3       30.18S
PARIS          CLEAR     64  48  55 S6        30.20S
LEXINGTON      CLEAR     59  55  88 CALM      30.20S
$$

TNZ008-025-027-028-033-062-065-066-050500-
NORTH MIDDLE TENNESSEE

CITY           SKY/WX    TMP DP  RH WIND       PRES   REMARKS
NASHVILLE      CLEAR     64  55  72 S3        30.23R
CLARKSVILLE    CLEAR     66  54  65 S5        30.20S
SMYRNA         FAIR      63  56  78 CALM      30.24S
COOKEVILLE     CLEAR     55  54  94 CALM      30.26R
CROSSVILLE     CLEAR     62  49  62 CALM      30.30S
$$

TNZ061-075-076-078-094-096-097-050500-
SOUTH MIDDLE TENNESSEE

CITY           SKY/WX    TMP DP  RH WIND       PRES   REMARKS
FAYETTEVILLE     N/A     63  52  67 CALM      30.25S
TULLAHOMA      CLEAR     57  52  82 CALM      30.27F
WINCHESTER     CLEAR     61  54  77 CALM      30.27S
MCMINNVILLE    CLEAR     61  55  82 CALM      30.27R
COLUMBIA       CLEAR     61  55  82 CALM      30.22S
SHELBYVILLE    CLEAR     61  55  82 E3        30.26S
$$

TNZ017-018-042-046-047-050500-
NORTHEAST TENNESSEE

CITY           SKY/WX    TMP DP  RH WIND       PRES   REMARKS
TRI CITIES     PTCLDY    57  51  80 N3        30.30R
ELIZABETHTON   CLEAR     54  50  87 CALM      30.31S
$$

TNZ012-013-036-069-073-074-050500-
CENTRAL EAST TENNESSEE

CITY           SKY/WX    TMP DP  RH WIND       PRES   REMARKS
KNOXVILLE      PTCLDY    66  51  58 SE3       30.26S
OAK RIDGE      CLEAR     61  53  75 CALM      30.28S
GATLINBURG     CLEAR     59  52  77 CALM      30.28S
MORRISTOWN     CLEAR     63  52  67 CALM      30.29S
$$

TNZ083-085-099-050500-
SOUTHEAST TENNESSEE

CITY           SKY/WX    TMP DP  RH WIND       PRES   REMARKS
CHATTANOOGA    CLEAR     63  55  75 CALM      30.26F
$$

SKY/WX REPORTED AS FAIR MEANS FEW OR NO CLOUDS BELOW
12 THOUSAND FEET.



USA.gov is the U.S. government's official web portal to all federal, state and local government web resources and services.